Location: Ch�risy
(50.2331°N, 2.9131°E)
Time: 23:33:45
(UTC+00:00)

CSL-04 DEB - Pass Details

Date: 17 January 2021
Orbit: 544 x 628 km, 98.8° (Epoch: 01 March)

Event Time Altitude Azimuth Distance (km) Brightness Sun altitude
Exits shadow 17:48:24 - 15° (NNE) 2,560 7.4 -14.1°
Reaches altitude 10° 17:49:48 10° 16° (NNE) 1,975 6.8 -14.3°
Maximum altitude 17:54:07 87° 106° (ESE) 607 4.4 -15.0°
Drops below altitude 10° 17:58:16 10° 195° (SSW) 1,908 7.4 -15.6°
Sets 18:00:22 0° 196° (SSW) 2,790 8.3 -16.0°
